Sarasota, FL

4:49 AM EST on November 18, 2019 (GMT -0500)
Sarasota-bradenton

Weather History for KSRQ - September, 2019

Change the Weather History Date:

Friday, September 27, 2019

  Actual Average Record
Temperature  
Mean Temperature 82 °F 80 °F  
Max Temperature 91 °F 88 °F 94 °F (1925)
Min Temperature 72 °F 73 °F 59 °F (1991)
Degree Days  
Heating Degree Days 0 0  
Month to date heating degree days 0 0  
Since 1 July heating degree days 0 0  
Cooling Degree Days 17 15  
Month to date cooling degree days 539 448  
Year to date cooling degree days 3397 2745  
Growing Degree Days 32 (Base 50)    
Moisture  
Dew Point 68 °F    
Average Humidity 64    
Maximum Humidity 90    
Minimum Humidity 38    
Precipitation  
Precipitation 0.00 in 0.14 in 7.08 in (1997)
Month to date precipitation 1.99 6.67  
Year to date precipitation 43.38 45.00  
Sea Level Pressure  
Sea Level Pressure 29.95 in    
Wind  
Wind Speed 5 mph ()    
Max Wind Speed 15 mph    
Max Gust Speed 19 mph    
Visibility 10.0 miles    
Events      
T = Trace of Precipitation, MM = Missing Value Source: Averaged Metar Reports

Daily Weather History Graph

Daily Weather History Graph

Search for Another Location

Airport or City:

Astronomy

Sep. 27, 2019 Rise Set
Actual Time 7:20 AM EDT 7:21 PM EDT
Civil Twilight 6:57 AM EDT 7:44 PM EDT
Nautical Twilight 6:30 AM EDT 8:11 PM EDT
Astronomical Twilight 6:03 AM EDT 8:38 PM EDT
Moon 5:56 AM EDT (9/27) 6:59 PM EDT (9/27)
Length of Visible Light 12h 46m
Length of Day
12h 00m
Waning Crescent, 2% of the Moon is Illuminated
Sep 27
Waning Crescent
Sep 28
New
Oct 5
First Quarter
Oct 13
Full
Oct 21
Last Quarter

Hourly Weather History & Observations

Time (EDT) Temp. Heat Index Dew Point Humidity Pressure Visibility Wind Dir Wind Speed Gust Speed Precip Events Conditions
12:53 AM 79.0 °F - 70.0 °F 74% 29.91 in 10.0 mi ESE 6.9 mph - N/A   Clear
1:53 AM 78.1 °F - 70.0 °F 76% 29.91 in 10.0 mi ESE 6.9 mph - N/A   Clear
2:53 AM 75.9 °F - 70.0 °F 82% 29.91 in 10.0 mi ESE 4.6 mph - N/A   Clear
3:53 AM 75.9 °F - 70.0 °F 82% 29.91 in 10.0 mi Calm Calm - N/A   Overcast
4:53 AM 75.0 °F - 70.0 °F 84% 29.91 in 10.0 mi Calm Calm - N/A   Scattered Clouds
5:53 AM 73.9 °F - 70.0 °F 87% 29.92 in 10.0 mi Calm Calm - N/A   Clear
6:53 AM 73.0 °F - 70.0 °F 90% 29.94 in 10.0 mi Calm Calm - N/A   Clear
7:53 AM 73.9 °F - 70.0 °F 87% 29.96 in 10.0 mi NNE 3.5 mph - N/A   Clear
8:53 AM 77.0 °F - 70.0 °F 79% 29.98 in 10.0 mi NE 4.6 mph - N/A   Clear
9:53 AM 80.1 °F 83.6 °F 71.1 °F 74% 29.99 in 10.0 mi East 5.8 mph - N/A   Clear
10:53 AM 84.9 °F 88.8 °F 69.1 °F 59% 30.00 in 10.0 mi SE 8.1 mph - N/A   Clear
11:53 AM 87.1 °F 91.3 °F 69.1 °F 55% 30.00 in 10.0 mi SE 6.9 mph - N/A   Clear
12:53 PM 88.0 °F 90.7 °F 66.9 °F 49% 29.99 in 10.0 mi Variable 6.9 mph - N/A   Partly Cloudy
1:53 PM 90.0 °F 91.7 °F 64.9 °F 43% 29.97 in 10.0 mi ENE 9.2 mph - N/A   Scattered Clouds
2:53 PM 90.0 °F 90.3 °F 62.1 °F 39% 29.94 in 10.0 mi East 10.4 mph - N/A   Partly Cloudy
3:53 PM 89.1 °F 89.3 °F 62.1 °F 40% 29.93 in 10.0 mi East 8.1 mph - N/A   Scattered Clouds
4:53 PM 91.0 °F 91.9 °F 63.0 °F 39% 29.91 in 10.0 mi ESE 4.6 mph - N/A   Clear
5:53 PM 90.0 °F 90.0 °F 61.0 °F 38% 29.91 in 10.0 mi ENE 8.1 mph - N/A   Clear
6:53 PM 88.0 °F 88.7 °F 63.0 °F 43% 29.92 in 10.0 mi ESE 6.9 mph - N/A   Clear
7:53 PM 84.9 °F 86.1 °F 64.0 °F 49% 29.94 in 10.0 mi East 3.5 mph - N/A   Clear
8:53 PM 81.0 °F 83.0 °F 66.0 °F 60% 29.96 in 10.0 mi East 8.1 mph - N/A   Clear
9:53 PM 82.0 °F 85.9 °F 70.0 °F 67% 29.98 in 10.0 mi East 9.2 mph - N/A   Clear
10:53 PM 82.0 °F 85.9 °F 70.0 °F 67% 29.99 in 10.0 mi ESE 13.8 mph - N/A   Clear
11:53 PM 80.1 °F 83.6 °F 71.1 °F 74% 29.99 in 10.0 mi ESE 11.5 mph - N/A   Clear